AirNav   GEt a FREE Bose Revolve Bluetooth Speaker
 
 736 users online  

H70 Stratford Field Airport
Stratford, Texas, USA

GOING TO STRATFORD?


FAA INFORMATION EFFECTIVE 06 DECEMBER 2018

Location

FAA Identifier: H70
Lat/Long: 36-20-44.3000N / 102-02-57.3000W
36-20.738333N / 102-02.955000W
36.3456389 / -102.0492500
(estimated)
Elevation: 3668.2 ft. / 1118.1 m (surveyed)
Variation: 09E (1985)
From city: 1 mile NE of STRATFORD, TX
Time zone: UTC -6 (UTC -5 during Daylight Saving Time)
Zip code: 79084

Airport Operations

Airport use: Open to the public
Activation date: 12/1946
Control tower: no
ARTCC: ALBUQUERQUE CENTER
FSS: FORT WORTH FLIGHT SERVICE STATION
NOTAMs facility: FTW (NOTAM-D service available)
Attendance: UNATNDD
Wind indicator: lighted
Segmented circle: no
Lights: ACTVT LIRL RY 04/22 5 X- CTAF.

Airport Communications

CTAF: 122.9
  • COMMUNICATIONS PROVIDED BY FORT WORTH RADIO ON FREQS 122.2 & 255.4 (DALHART RCO).

Nearby radio navigation aids

VOR radial/distance  VOR name  Freq  Var
DHTr046/28.4DALHART VORTAC112.0012E

 
NDB name  Hdg/Dist  Freq  Var  ID
GUYMON222/34.027509EGUY --. ..- -.--

Airport Services

Fuel available: EMERGENCY FUEL 100LL ONLY.
Parking: hangars and tiedowns
Airframe service: NONE
Powerplant service: NONE
Bottled oxygen: NONE
Bulk oxygen: NONE

Runway Information

Runway 4/22

Dimensions: 3023 x 32 ft. / 921 x 10 m
Surface: asphalt, in good condition
Weight bearing capacity: 
Single wheel: 9.0
Runway edge lights: low intensity
RY 04/22 NSTD LIRL; LGTS LCTD 33 FT FM EDGE OF PAVEMENT.
Runway edge markings: RY 04/22 NOT MARKED.
RUNWAY 4  RUNWAY 22
Latitude: 36-20.592200N36-20.885550N
Longitude: 102-03.204267W102-02.706533W
Elevation: 3668.2 ft.3652.3 ft.
Gradient: 0.5% UP
Traffic pattern: leftleft
Runway heading: 045 magnetic, 054 true225 magnetic, 234 true
Touchdown point: yes, no lightsyes, no lights
Obstructions: 15 ft. road, 200 ft. from runway, 50 ft. right of centerline
+20 FT HGR AT THR 80 FT RIGHT CNTRLN.
15 ft. road, 200 ft. from runway, 35 ft. right of centerline
15 FT ROAD 166 FT FM THLD, O BOTH SIDES

Airport Ownership and Management from official FAA records

Ownership: Privately-owned
Owner: SKYRANCHERS INC.
PO BOX 223
STRATFORD, TX 79084
Phone (806) 753-7866
Manager: ROGER WELLS
BOX 223
STRATFORD, TX 79084
Phone (806) 753-7866

Airport Operational Statistics

Aircraft based on the field: 6
Single engine airplanes: 6
    
Aircraft operations: avg 22/month *
62% local general aviation
38% transient general aviation
* for 12-month period ending 20 September 2017

Additional Remarks

SEWAGE TREATMENT PLANT LCTD SOUTH OF RY.

Instrument Procedures

NOTE: All procedures below are presented as PDF files. If you need a reader for these files, you should download the free Adobe Reader.

NOT FOR NAVIGATION. Please procure official charts for flight.
FAA instrument procedures published for use from 6 December 2018 at 0901Z to 3 January 2019 at 0900Z.

NOTE: Special Take-Off Minimums/Departure Procedures apply   download (195KB)

Other nearby airports with instrument procedures:

KDUX - Moore County Airport (29 nm S)
E19 - Gruver Municipal Airport (31 nm E)
KDHT - Dalhart Municipal Airport (31 nm SW)
KGUY - Guymon Municipal Airport (33 nm NE)
17K - Boise City Airport (34 nm NW)
 
Loc | Ops | Rwys | IFR | FBO | Links
Com | Nav | Svcs | Stats | Notes


 
Area around H70 (Stratford Field Airport)
 
Road maps at: MapQuest Bing Google
 
Aerial photo
WARNING: Photo may not be current or correct
Aerial photo of H70 (Stratford Field Airport)
Photo by R. Johnson

Do you have a better or more recent aerial photo of Stratford Field Airport that you would like to share? If so, please send us your photo.

 
Sectional chart

 
Airport distance calculator
Flying to Stratford Field Airport? Find the distance to fly.

From to H70

Sunrise and sunset
Times for 15-Dec-2018
 Local
(UTC-6)
 Zulu
(UTC)
Morning civil twilight07:2513:25
Sunrise07:5313:53
Sunset17:3323:33
Evening civil twilight18:0200:02

Current date and time
Zulu (UTC)  16-Dec-2018 03:40:24
Local (UTC-6)  15-Dec-2018 21:40:24
 
METAR
KDUX 
29nm S 
160315Z AUTO 24009KT 10SM CLR 05/M09 A3011 RMK AO2 T00471090
KDHT 
31nm SW 
160253Z AUTO 26004KT 10SM CLR 04/M09 A3013 RMK AO2 SLP209 T00441089 51015
KGUY 
33nm NE 
160253Z AUTO 30008KT 10SM CLR 06/M08 A3009 RMK AO2 SLP196 T00611083 53015
KEHA 
40nm N 
160315Z AUTO 30007KT 10SM CLR 05/M07 A3012 RMK AO2 T00501070 PNO
KBGD 
50nm SE 
160251Z AUTO 17005KT 10SM CLR 09/M09 A3011 RMK AO2 SLP203 T00941089 53013
TAF
KDHT 
31nm SW 
151720Z 1518/1618 23006KT P6SM SCT200 FM160100 33008KT P6SM SCT200 FM161600 01008KT P6SM SCT200
KGUY 
33nm NE 
151720Z 1518/1618 18007KT P6SM SKC FM152200 VRB06KT P6SM SCT200 FM160500 32007KT P6SM SCT200
NOTAMs
Click for the latest NOTAMs
NOTAMs are issued by the DoD/FAA and will open in a separate window not controlled by AirNav.

 

 
 

Would you like to see your business listed on this page?

 If your business provides an interesting product or service to pilots, flight crews, aircraft, or users of the Stratford Field Airport, you should consider listing it here.  To start the listing process, click on the button below
 
Add a business
 

Other Pages about Stratford Field Airport

Update a link
 
Copyright © AirNav, LLC. All rights reserved. Privacy Policy  Contact